STARLINK-35491, 66113

Orbit data source: Space-Track

STARLINK-35491, 66113 is a payload satellite owned by SpaceX/Seattle (US) in LEO that was launched on Sun, 19 Oct 2025 UTC via an FALCON 9 launch vehicle from the Air Force Western Test Range (AFWTR). Payload-class satellites include a variety of spacecraft equipped with specific instruments for various scientific and technological missions. These include communications satellites like Starlink; space stations such as the ISS; scientific satellites like the Hubble; Earth observation satellites from companies like Planet Labs, Umbra, and HawkEye 360; GPS; miniature CubeSats for education and research; and military/defense satellites.

Loading next visibility...
Identifier
66113, 2025-236AD
Orbit
LEO
Country
Flag of USUS
Related business
Manufacturer
SpaceX/Seattle
Mission
Operational Commercial Communications
Bus & Motor
STARLINK V2MO, Unknown motor
Mass
575 kg wet, ~530 kg dry
Launch date (UTC)
2025-10-19 (6 months ago)
Launch vehicle
FALCON 9
Launch site
Air Force Western Test Range (AFWTR)
Object type
Payload
Rocket body
Debris
Shape & HBR
Box + 2 Pan, 17.7 m
Radar Cross Section
36.964 m²

Expand to show TLE details & history
Last TLE update: 14 hours ago

TLE from 14 hours ago
0 STARLINK-35491
1 66113U 25236AD  26095.09862389  .00034901  00000-0  11869-2 0  9996
2 66113  53.1595 341.5069 0001131  82.6821 277.4309 15.30147731 26987
Epoch: 2026-04-05T02:22Z
TLE epoch observation values (Epoch: 2026-04-05T02:22:01.104Z)
Latitude
0.00006°
Longitude
112.59342°
Altitude
476.171 km
Speed
7.629 km/s
True Right ascension
22h 46m 01s
True Declination
0° 00' 00"
Sunlit
Object was in daylight at epoch
Visualization orbit readout
Latitude
Unknown
Longitude
Unknown
Altitude
Unknown
Speed
Unknown
Apparent Right ascension
Unknown
Apparent Declination
Unknown
Sunlit
N/A
Visualization observer readout
Local Sidereal Time
21:54:14
Azimuth
Unknown
Elevation
Unknown
Doppler factor
Unknown
Orbital elements
Apogee altitude
476.403 km
Perigee altitude
474.852 km
Semi-major axis
6,853.765 km
Eccentricity
0.00011
Inclination
53.1595°
RAAN
341.5069°
Arg. of periapsis
82.6821°
True anomaly
277.41805°
Mean anomaly
277.4309°
Eccentric anomaly
277.42447°
Mean motion
3.82516 °/min
Orbital period
94.11 mins
BSTAR
0.0011869
Loading maneuver chart data...
Computing Atmospheric mass density...
Loading historical data...
Loading historical data...
Loading historical data...
Loading historical data...
Loading historical data...
Loading historical data...
Loading historical data...

Documentation

Showing up to 5 results
|